SBI1007 UUDD-ULLI

Flight info

Callsign SBI1007
Flight time 1h 8m
Altitude 32000
Route SUNUN M869 RAVKA N50 NUDKO T561 ODATI T875 GENPA
Aircraft B738/M-SDE2E3FGHIRWXY/LB1

Departure

Time 2026-05-04 13:49
Airport Domodedovo International Airport (UUDD)

Arrival

Time 2026-05-04 14:58
Airport Pulkovo Airport (ULLI)
Time Latitude Longitude Altitude Speed Heading
2026-05-04 13:13 55.41007 37.89524 574 ft 0 kts 54°
2026-05-04 13:33 55.41005 37.89517 578 ft 2 kts 54°
2026-05-04 13:34 55.40995 37.89493 575 ft 2 kts 57°
2026-05-04 13:34 55.40987 37.89468 574 ft 2 kts 62°
2026-05-04 13:34 55.40980 37.89442 576 ft 2 kts 71°
2026-05-04 13:34 55.40976 37.89413 578 ft 2 kts 97°
2026-05-04 13:35 55.40983 37.89388 575 ft 2 kts 140°
2026-05-04 13:35 55.40987 37.89383 575 ft 0 kts 144°
2026-05-04 13:39 55.40954 37.89424 579 ft 10 kts 144°
2026-05-04 13:39 55.40887 37.89506 570 ft 13 kts 148°
2026-05-04 13:39 55.40821 37.89570 569 ft 9 kts 152°
2026-05-04 13:39 55.40765 37.89583 569 ft 9 kts 212°
2026-05-04 13:40 55.40726 37.89502 568 ft 9 kts 234°
2026-05-04 13:40 55.40693 37.89416 567 ft 8 kts 236°
2026-05-04 13:40 55.40652 37.89355 570 ft 8 kts 189°
2026-05-04 13:40 55.40600 37.89391 566 ft 8 kts 144°
2026-05-04 13:41 55.40550 37.89453 565 ft 9 kts 146°
2026-05-04 13:41 55.40489 37.89526 568 ft 12 kts 145°
2026-05-04 13:41 55.40413 37.89618 564 ft 15 kts 145°
2026-05-04 13:42 55.40238 37.89828 560 ft 15 kts 146°
2026-05-04 13:42 55.40154 37.89930 555 ft 14 kts 146°
2026-05-04 13:42 55.40074 37.90026 558 ft 14 kts 146°
2026-05-04 13:42 55.39998 37.90118 557 ft 13 kts 145°
2026-05-04 13:43 55.39924 37.90207 550 ft 13 kts 145°
2026-05-04 13:43 55.39853 37.90293 548 ft 12 kts 145°
2026-05-04 13:43 55.39783 37.90378 547 ft 12 kts 145°
2026-05-04 13:43 55.39714 37.90459 545 ft 12 kts 147°
2026-05-04 13:44 55.39647 37.90537 544 ft 11 kts 154°
2026-05-04 13:44 55.39584 37.90495 543 ft 0 kts 234°
2026-05-04 13:45 55.39570 37.90456 544 ft 6 kts 236°
2026-05-04 13:46 55.39545 37.90385 542 ft 8 kts 249°
2026-05-04 13:46 55.39553 37.90295 542 ft 8 kts 302°
2026-05-04 13:46 55.39588 37.90246 543 ft 0 kts 326°
2026-05-04 13:48 55.39607 37.90223 543 ft 23 kts 326°
2026-05-04 13:48 55.39976 37.89778 557 ft 103 kts 325°
2026-05-04 13:48 55.40751 37.88807 603 ft 166 kts 323°
2026-05-04 13:49 55.41764 37.87507 1101 ft 191 kts 322°
2026-05-04 13:49 55.42856 37.85972 1818 ft 203 kts 317°
2026-05-04 13:49 55.43916 37.84427 2696 ft 196 kts 315°
2026-05-04 13:49 55.44841 37.82552 3221 ft 208 kts 304°
2026-05-04 13:50 55.45748 37.80512 3693 ft 212 kts 306°
2026-05-04 13:50 55.46682 37.78502 4242 ft 212 kts 309°
2026-05-04 13:50 55.47939 37.77113 4750 ft 219 kts 339°
2026-05-04 13:50 55.49387 37.76271 5285 ft 220 kts 337°
2026-05-04 13:51 55.50857 37.75364 5836 ft 228 kts 336°
2026-05-04 13:51 55.52445 37.74703 6359 ft 245 kts 358°
2026-05-04 13:51 55.54129 37.75485 6920 ft 258 kts 21°
2026-05-04 13:51 55.55711 37.77022 7422 ft 268 kts 27°
2026-05-04 13:52 55.58938 37.80493 8486 ft 274 kts 27°
2026-05-04 13:52 55.60587 37.82226 9027 ft 276 kts 26°
2026-05-04 13:52 55.62242 37.83946 9566 ft 277 kts 26°
2026-05-04 13:53 55.63909 37.85669 10087 ft 278 kts 25°
2026-05-04 13:53 55.65714 37.86795 10544 ft 275 kts
2026-05-04 13:53 55.66992 37.86859 10875 ft 281 kts 356°
2026-05-04 13:54 55.71103 37.86749 11855 ft 309 kts 355°
2026-05-04 13:54 55.73297 37.86689 12368 ft 322 kts 356°
2026-05-04 13:54 55.77961 37.86599 13399 ft 346 kts 356°
2026-05-04 13:55 55.80413 37.86559 13888 ft 357 kts 356°
2026-05-04 13:55 55.85443 37.85695 14799 ft 370 kts 335°
2026-05-04 13:55 55.87662 37.83357 15300 ft 374 kts 317°
2026-05-04 13:56 55.89391 37.79869 15788 ft 378 kts 306°
2026-05-04 13:56 55.90945 37.76039 16276 ft 384 kts 301°
2026-05-04 13:56 55.92554 37.66968 17266 ft 394 kts 280°
2026-05-04 13:57 55.93038 37.62067 17793 ft 399 kts 280°
2026-05-04 13:57 55.93544 37.57176 18289 ft 403 kts 280°
2026-05-04 13:58 55.95880 37.42602 19647 ft 416 kts 290°
2026-05-04 13:58 55.97894 37.32851 20592 ft 420 kts 288°
2026-05-04 13:58 55.98729 37.27835 21065 ft 421 kts 284°
2026-05-04 13:59 55.99431 37.22749 21550 ft 423 kts 282°
2026-05-04 13:59 56.00091 37.17618 22048 ft 424 kts 282°
2026-05-04 13:59 56.01415 37.07332 23064 ft 425 kts 282°
2026-05-04 14:00 56.02094 37.02192 23555 ft 425 kts 283°
2026-05-04 14:00 56.03467 36.91957 24429 ft 426 kts 283°
2026-05-04 14:00 56.04160 36.86803 24880 ft 426 kts 283°
2026-05-04 14:01 56.04849 36.81660 25336 ft 425 kts 283°
2026-05-04 14:01 56.05535 36.76522 25801 ft 424 kts 283°
2026-05-04 14:01 56.06899 36.66252 26753 ft 423 kts 283°
2026-05-04 14:02 56.07574 36.61143 27236 ft 421 kts 283°
2026-05-04 14:02 56.08246 36.56040 27740 ft 420 kts 283°
2026-05-04 14:02 56.08912 36.50961 28236 ft 418 kts 283°
2026-05-04 14:02 56.09637 36.45924 28755 ft 416 kts 285°
2026-05-04 14:03 56.10424 36.40951 29276 ft 414 kts 286°
2026-05-04 14:03 56.11223 36.36001 29812 ft 412 kts 286°
2026-05-04 14:03 56.12010 36.31075 30281 ft 410 kts 286°
2026-05-04 14:03 56.12782 36.26158 30744 ft 408 kts 286°
2026-05-04 14:04 56.14277 36.16478 31684 ft 403 kts 286°
2026-05-04 14:04 56.15058 36.11635 31822 ft 407 kts 290°
2026-05-04 14:04 56.16205 36.06962 31858 ft 413 kts 296°
2026-05-04 14:05 56.18881 35.97653 31848 ft 425 kts 297°
2026-05-04 14:05 56.20467 35.93116 31841 ft 431 kts 306°
2026-05-04 14:06 56.24603 35.85300 31834 ft 435 kts 321°
2026-05-04 14:06 56.29487 35.78863 31832 ft 436 kts 322°
2026-05-04 14:07 56.34389 35.72446 31822 ft 435 kts 322°
2026-05-04 14:07 56.39238 35.65952 31820 ft 433 kts 321°
2026-05-04 14:08 56.44065 35.59457 31818 ft 432 kts 321°
2026-05-04 14:08 56.48856 35.53030 31812 ft 430 kts 321°
2026-05-04 14:09 56.56038 35.43354 31810 ft 428 kts 321°
2026-05-04 14:10 56.63164 35.33599 31806 ft 427 kts 320°
2026-05-04 14:10 56.67890 35.27041 31804 ft 427 kts 320°
2026-05-04 14:11 56.72624 35.20460 31803 ft 428 kts 320°
2026-05-04 14:11 56.79727 35.10558 31801 ft 429 kts 320°
2026-05-04 14:12 56.84434 35.03970 31798 ft 429 kts 320°
2026-05-04 14:13 56.91555 34.94015 31795 ft 430 kts 321°
2026-05-04 14:13 56.96546 34.87892 31788 ft 432 kts 324°
2026-05-04 14:14 57.01615 34.81954 31792 ft 432 kts 324°
2026-05-04 14:14 57.09180 34.72968 31780 ft 432 kts 323°
2026-05-04 14:15 57.19209 34.60863 31776 ft 431 kts 323°
2026-05-04 14:16 57.26714 34.51745 31774 ft 430 kts 323°
2026-05-04 14:17 57.34207 34.42596 31777 ft 429 kts 323°
2026-05-04 14:18 57.41664 34.33448 31773 ft 429 kts 322°
2026-05-04 14:19 57.51615 34.21168 31768 ft 429 kts 322°
2026-05-04 14:19 57.56586 34.15004 31767 ft 429 kts 322°
2026-05-04 14:20 57.61563 34.08811 31766 ft 429 kts 322°
2026-05-04 14:20 57.66531 34.02608 31764 ft 429 kts 322°
2026-05-04 14:21 57.73948 33.93309 31764 ft 430 kts 322°
2026-05-04 14:21 57.78912 33.87058 31764 ft 430 kts 322°
2026-05-04 14:22 57.83872 33.80793 31764 ft 430 kts 322°
2026-05-04 14:22 57.88765 33.74361 31757 ft 428 kts 318°
2026-05-04 14:23 57.95684 33.63786 31753 ft 427 kts 316°
2026-05-04 14:24 58.00285 33.56688 31757 ft 427 kts 316°
2026-05-04 14:24 58.04902 33.49613 31753 ft 427 kts 316°
2026-05-04 14:25 58.09495 33.42569 31752 ft 428 kts 316°
2026-05-04 14:25 58.14106 33.35473 31643 ft 429 kts 316°
2026-05-04 14:25 58.16432 33.31881 31115 ft 431 kts 316°
2026-05-04 14:26 58.18748 33.28304 30652 ft 429 kts 316°
2026-05-04 14:26 58.21065 33.24719 30194 ft 431 kts 316°
2026-05-04 14:26 58.23398 33.21102 29719 ft 433 kts 316°
2026-05-04 14:26 58.25734 33.17475 29181 ft 434 kts 316°
2026-05-04 14:27 58.28076 33.13834 28662 ft 435 kts 316°
2026-05-04 14:27 58.30425 33.10176 28145 ft 436 kts 316°
2026-05-04 14:27 58.32771 33.06515 27633 ft 436 kts 316°
2026-05-04 14:27 58.35118 33.02848 27139 ft 437 kts 316°
2026-05-04 14:28 58.37464 32.99173 26644 ft 437 kts 316°
2026-05-04 14:28 58.39815 32.95486 26162 ft 437 kts 316°
2026-05-04 14:28 58.42137 32.91838 25698 ft 438 kts 316°
2026-05-04 14:28 58.44494 32.88127 25237 ft 439 kts 316°
2026-05-04 14:29 58.49208 32.80669 24321 ft 439 kts 316°
2026-05-04 14:29 58.53889 32.73234 23431 ft 434 kts 316°
2026-05-04 14:30 58.56201 32.69552 22926 ft 431 kts 316°
2026-05-04 14:30 58.58495 32.65893 22417 ft 427 kts 316°
2026-05-04 14:30 58.62997 32.58695 21602 ft 415 kts 315°
2026-05-04 14:31 58.65202 32.55159 21250 ft 410 kts 315°
2026-05-04 14:31 58.69557 32.48147 20603 ft 411 kts 315°
2026-05-04 14:32 58.73930 32.41093 19954 ft 406 kts 315°
2026-05-04 14:32 58.76061 32.37649 19631 ft 403 kts 315°
2026-05-04 14:32 58.78203 32.34189 19309 ft 401 kts 315°
2026-05-04 14:32 58.80341 32.30734 18997 ft 399 kts 315°
2026-05-04 14:33 58.82457 32.27311 18684 ft 394 kts 315°
2026-05-04 14:33 58.84530 32.23960 18369 ft 383 kts 314°
2026-05-04 14:33 58.86542 32.20700 18060 ft 373 kts 314°
2026-05-04 14:33 58.88504 32.17513 17739 ft 364 kts 314°
2026-05-04 14:34 58.90428 32.14380 17391 ft 358 kts 314°
2026-05-04 14:34 58.92316 32.11297 17048 ft 353 kts 314°
2026-05-04 14:34 58.94176 32.08255 16697 ft 347 kts 313°
2026-05-04 14:34 58.95985 32.05291 16370 ft 342 kts 313°
2026-05-04 14:35 58.97791 32.02331 16013 ft 337 kts 313°
2026-05-04 14:35 58.99558 31.99431 15740 ft 329 kts 313°
2026-05-04 14:35 59.01285 31.96594 15458 ft 322 kts 313°
2026-05-04 14:35 59.02978 31.93808 15170 ft 316 kts 312°
2026-05-04 14:36 59.04635 31.91075 14899 ft 310 kts 312°
2026-05-04 14:36 59.06265 31.88385 14634 ft 304 kts 312°
2026-05-04 14:36 59.07861 31.85747 14360 ft 299 kts 312°
2026-05-04 14:36 59.09435 31.83145 14100 ft 295 kts 312°
2026-05-04 14:37 59.10976 31.80559 13840 ft 289 kts 310°
2026-05-04 14:37 59.12425 31.77891 13566 ft 284 kts 308°
2026-05-04 14:37 59.13827 31.75217 13284 ft 280 kts 308°
2026-05-04 14:37 59.15207 31.72571 12995 ft 277 kts 308°
2026-05-04 14:38 59.16572 31.69962 12705 ft 274 kts 307°
2026-05-04 14:38 59.17920 31.67390 12445 ft 267 kts 307°
2026-05-04 14:38 59.19207 31.64943 12169 ft 257 kts 307°
2026-05-04 14:38 59.20464 31.62551 11876 ft 248 kts 307°
2026-05-04 14:39 59.21676 31.60243 11584 ft 240 kts 306°
2026-05-04 14:39 59.22856 31.57995 11301 ft 233 kts 306°
2026-05-04 14:39 59.24003 31.55807 11012 ft 227 kts 306°
2026-05-04 14:40 59.26210 31.51596 10498 ft 216 kts 306°
2026-05-04 14:40 59.27281 31.49541 10224 ft 215 kts 306°
2026-05-04 14:40 59.28350 31.47495 9951 ft 215 kts 307°
2026-05-04 14:40 59.29127 31.46251 9777 ft 219 kts 313°
2026-05-04 14:41 59.30775 31.43956 9419 ft 218 kts 313°
2026-05-04 14:41 59.32002 31.42207 9124 ft 218 kts 313°
2026-05-04 14:41 59.34451 31.38712 8550 ft 217 kts 313°
2026-05-04 14:42 59.36496 31.35797 8075 ft 216 kts 313°
2026-05-04 14:42 59.37717 31.34059 7801 ft 217 kts 313°
2026-05-04 14:42 59.38938 31.32316 7527 ft 218 kts 313°
2026-05-04 14:43 59.40158 31.30579 7279 ft 220 kts 313°
2026-05-04 14:43 59.41387 31.28830 7008 ft 217 kts 313°
2026-05-04 14:43 59.42567 31.27032 6736 ft 213 kts 310°
2026-05-04 14:43 59.43681 31.25167 6437 ft 203 kts 299°
2026-05-04 14:44 59.44135 31.22780 6176 ft 181 kts 274°
2026-05-04 14:44 59.44451 31.20355 5924 ft 186 kts 282°
2026-05-04 14:44 59.44954 31.17972 5712 ft 190 kts 288°
2026-05-04 14:44 59.45602 31.15693 5545 ft 192 kts 293°
2026-05-04 14:45 59.46369 31.13522 5358 ft 192 kts 297°
2026-05-04 14:45 59.47202 31.11527 5169 ft 185 kts 300°
2026-05-04 14:45 59.48037 31.09709 5051 ft 173 kts 301°
2026-05-04 14:45 59.48853 31.08014 5037 ft 169 kts 302°
2026-05-04 14:46 59.49677 31.06339 5040 ft 171 kts 302°
2026-05-04 14:46 59.50512 31.04666 5034 ft 172 kts 302°
2026-05-04 14:46 59.51344 31.03015 5019 ft 171 kts 302°
2026-05-04 14:46 59.52135 31.01315 5027 ft 167 kts 299°
2026-05-04 14:47 59.52892 30.99582 5015 ft 167 kts 299°
2026-05-04 14:47 59.53651 30.97835 5008 ft 168 kts 298°
2026-05-04 14:47 59.54410 30.96090 5010 ft 167 kts 298°
2026-05-04 14:47 59.55158 30.94376 5026 ft 165 kts 298°
2026-05-04 14:48 59.55909 30.92646 5042 ft 169 kts 298°
2026-05-04 14:48 59.56689 30.90843 5025 ft 174 kts 298°
2026-05-04 14:48 59.57475 30.89041 5022 ft 172 kts 299°
2026-05-04 14:48 59.58250 30.87267 5006 ft 169 kts 298°
2026-05-04 14:49 59.59000 30.85547 5012 ft 167 kts 298°
2026-05-04 14:49 59.59758 30.83800 5008 ft 168 kts 298°
2026-05-04 14:49 59.60523 30.82041 5009 ft 169 kts 298°
2026-05-04 14:49 59.61291 30.80266 4852 ft 174 kts 298°
2026-05-04 14:50 59.62082 30.78447 4671 ft 175 kts 299°
2026-05-04 14:50 59.62871 30.76634 4512 ft 174 kts 298°
2026-05-04 14:50 59.63658 30.74821 4327 ft 173 kts 298°
2026-05-04 14:50 59.64440 30.73015 4149 ft 173 kts 298°
2026-05-04 14:51 59.65218 30.71216 3935 ft 171 kts 300°
2026-05-04 14:51 59.66001 30.69404 3750 ft 179 kts 300°
2026-05-04 14:51 59.66862 30.67543 3564 ft 189 kts 309°
2026-05-04 14:51 59.67925 30.66011 3402 ft 188 kts 314°
2026-05-04 14:52 59.69004 30.64560 3220 ft 186 kts 314°
2026-05-04 14:52 59.70068 30.63112 3037 ft 185 kts 314°
2026-05-04 14:52 59.71113 30.61672 2860 ft 186 kts 314°
2026-05-04 14:52 59.72152 30.60239 2699 ft 176 kts 314°
2026-05-04 14:53 59.73128 30.58894 2537 ft 165 kts 314°
2026-05-04 14:53 59.74040 30.57614 2521 ft 159 kts 309°
2026-05-04 14:53 59.74615 30.55947 2525 ft 142 kts 282°
2026-05-04 14:53 59.75003 30.54146 2517 ft 140 kts 282°
2026-05-04 14:54 59.75390 30.52373 2494 ft 140 kts 281°
2026-05-04 14:54 59.75722 30.50579 2387 ft 141 kts 278°
2026-05-04 14:54 59.76021 30.48709 2188 ft 143 kts 277°
2026-05-04 14:54 59.76304 30.46841 2020 ft 141 kts 277°
2026-05-04 14:55 59.76579 30.44980 1816 ft 140 kts 278°
2026-05-04 14:55 59.76849 30.43143 1641 ft 138 kts 277°
2026-05-04 14:55 59.77118 30.41298 1450 ft 140 kts 277°
2026-05-04 14:55 59.77393 30.39425 1283 ft 143 kts 278°
2026-05-04 14:56 59.77674 30.37506 1085 ft 146 kts 280°
2026-05-04 14:56 59.77961 30.35582 879 ft 144 kts 279°
2026-05-04 14:56 59.78239 30.33663 688 ft 144 kts 281°
2026-05-04 14:56 59.78525 30.31732 481 ft 147 kts 283°
2026-05-04 14:57 59.78818 30.29754 292 ft 150 kts 283°
2026-05-04 14:57 59.79118 30.27815 125 ft 141 kts 283°
2026-05-04 14:57 59.79357 30.26105 86 ft 107 kts 285°
2026-05-04 14:57 59.79506 30.25063 83 ft 53 kts 287°
2026-05-04 14:58 59.79570 30.24629 87 ft 15 kts 286°
2026-05-04 14:58 59.79599 30.24437 87 ft 16 kts 287°
2026-05-04 14:58 59.79631 30.24228 86 ft 16 kts 287°
2026-05-04 14:58 59.79662 30.24022 84 ft 17 kts 287°
2026-05-04 14:59 59.79705 30.23751 82 ft 24 kts 289°
2026-05-04 14:59 59.79760 30.23443 85 ft 23 kts 290°
2026-05-04 14:59 59.79874 30.23106 85 ft 11 kts 312°
2026-05-04 15:00 59.79933 30.23026 83 ft 9 kts 340°
2026-05-04 15:00 59.79978 30.23098 83 ft 9 kts 77°
2026-05-04 15:00 59.79966 30.23222 85 ft 9 kts 105°
2026-05-04 15:01 59.79933 30.23456 83 ft 9 kts 105°
2026-05-04 15:01 59.79917 30.23569 82 ft 8 kts 105°
2026-05-04 15:01 59.79902 30.23678 84 ft 8 kts 105°
2026-05-04 15:01 59.79887 30.23785 82 ft 8 kts 105°
2026-05-04 15:02 59.79873 30.23887 85 ft 8 kts 105°
2026-05-04 15:02 59.79858 30.23992 83 ft 9 kts 105°
2026-05-04 15:02 59.79834 30.24142 84 ft 13 kts 111°
2026-05-04 15:02 59.79803 30.24313 85 ft 13 kts 107°
2026-05-04 15:03 59.79779 30.24483 84 ft 13 kts 108°
2026-05-04 15:03 59.79754 30.24647 87 ft 13 kts 105°
2026-05-04 15:03 59.79727 30.24836 87 ft 16 kts 106°
2026-05-04 15:03 59.79694 30.25063 85 ft 19 kts 106°
2026-05-04 15:04 59.79656 30.25326 82 ft 21 kts 106°
2026-05-04 15:04 59.79621 30.25568 85 ft 17 kts 106°
2026-05-04 15:04 59.79591 30.25780 83 ft 15 kts 105°
2026-05-04 15:04 59.79559 30.25981 83 ft 15 kts 108°
2026-05-04 15:05 59.79528 30.26170 85 ft 14 kts 108°
2026-05-04 15:05 59.79510 30.26310 86 ft 9 kts 88°
2026-05-04 15:05 59.79557 30.26379 82 ft 9 kts 14°
2026-05-04 15:05 59.79615 30.26411 82 ft 9 kts 13°
2026-05-04 15:06 59.79672 30.26445 85 ft 8 kts 17°
2026-05-04 15:06 59.79726 30.26478 82 ft 8 kts 17°
2026-05-04 15:06 59.79779 30.26509 82 ft 7 kts 15°
2026-05-04 15:07 59.79823 30.26641 81 ft 6 kts 105°
2026-05-04 15:07 59.79821 30.26660 81 ft 0 kts 104°